Year,Month,Day,Hour,Minute,Value (Times are PST for temperature in C)
2009,06,20,00,00,11.00
2009,06,20,00,01,11.00
2009,06,20,00,02,10.90
2009,06,20,00,03,10.90
2009,06,20,00,04,10.80
2009,06,20,00,05,10.80
2009,06,20,00,06,10.80
2009,06,20,00,07,10.80
2009,06,20,00,08,10.70
2009,06,20,00,09,10.70
2009,06,20,00,10,10.70
2009,06,20,00,11,10.60
2009,06,20,00,12,10.60
2009,06,20,00,13,10.60
2009,06,20,00,14,10.50
2009,06,20,00,15,10.50
2009,06,20,00,16,10.50
2009,06,20,00,17,10.40
2009,06,20,00,18,10.40
2009,06,20,00,19,10.40
2009,06,20,00,20,10.30
2009,06,20,00,21,10.30
2009,06,20,00,22,10.20
2009,06,20,00,23,10.10
2009,06,20,00,24,10.10
2009,06,20,00,25,10.00
2009,06,20,00,26,10.00
2009,06,20,00,27,10.00
2009,06,20,00,28,9.90
2009,06,20,00,29,9.90
2009,06,20,00,30,9.90
2009,06,20,00,31,9.90
2009,06,20,00,32,9.80
2009,06,20,00,33,9.80
2009,06,20,00,34,9.80
2009,06,20,00,35,9.70
2009,06,20,00,36,9.70
2009,06,20,00,37,9.70
2009,06,20,00,38,9.60
2009,06,20,00,39,9.60
2009,06,20,00,40,9.60
2009,06,20,00,41,9.50
2009,06,20,00,42,9.50
2009,06,20,00,43,9.50
2009,06,20,00,44,9.40
2009,06,20,00,45,9.40
2009,06,20,00,46,9.40
2009,06,20,00,47,9.40
2009,06,20,00,48,9.40
2009,06,20,00,49,9.30
2009,06,20,00,50,9.30
2009,06,20,00,51,9.30
2009,06,20,00,52,9.20
2009,06,20,00,53,9.20
2009,06,20,00,54,9.20
2009,06,20,00,55,9.20
2009,06,20,00,56,9.10
2009,06,20,00,57,9.10
2009,06,20,00,58,9.10
2009,06,20,00,59,9.10
2009,06,20,01,00,9.10
2009,06,20,01,01,9.10
2009,06,20,01,02,9.10
2009,06,20,01,03,9.00
2009,06,20,01,04,9.00
2009,06,20,01,05,9.00
2009,06,20,01,06,8.90
2009,06,20,01,07,8.90
2009,06,20,01,08,8.90
2009,06,20,01,09,8.90
2009,06,20,01,10,8.80
2009,06,20,01,11,8.80
2009,06,20,01,12,8.80
2009,06,20,01,13,8.80
2009,06,20,01,14,8.80
2009,06,20,01,15,8.80
2009,06,20,01,16,8.80
2009,06,20,01,17,8.80
2009,06,20,01,18,8.80
2009,06,20,01,19,8.90
2009,06,20,01,20,8.90
2009,06,20,01,21,8.90
2009,06,20,01,22,9.00
2009,06,20,01,23,9.00
2009,06,20,01,24,9.00
2009,06,20,01,25,9.10
2009,06,20,01,26,9.10
2009,06,20,01,27,9.10
2009,06,20,01,28,9.10
2009,06,20,01,29,9.10
2009,06,20,01,30,9.10
2009,06,20,01,31,9.10
2009,06,20,01,32,9.10
2009,06,20,01,33,9.10
2009,06,20,01,34,9.10
2009,06,20,01,35,9.20
2009,06,20,01,36,9.20
2009,06,20,01,37,9.20
2009,06,20,01,38,9.20
2009,06,20,01,39,9.30
2009,06,20,01,40,9.30
2009,06,20,01,41,9.40
2009,06,20,01,42,9.50
2009,06,20,01,43,9.60
2009,06,20,01,44,9.70
2009,06,20,01,45,9.80
2009,06,20,01,46,9.80
2009,06,20,01,47,9.90
2009,06,20,01,48,10.00
2009,06,20,01,49,10.00
2009,06,20,01,50,10.10
2009,06,20,01,51,10.10
2009,06,20,01,52,10.10
2009,06,20,01,53,10.20
2009,06,20,01,54,10.20
2009,06,20,01,55,10.20
2009,06,20,01,56,10.20
2009,06,20,01,57,10.20
2009,06,20,01,58,10.20
2009,06,20,01,59,10.20
2009,06,20,02,00,10.20
2009,06,20,02,01,10.20
2009,06,20,02,02,10.20
2009,06,20,02,03,10.20
2009,06,20,02,04,10.20
2009,06,20,02,05,10.20
2009,06,20,02,06,10.20
2009,06,20,02,07,10.20
2009,06,20,02,08,10.20
2009,06,20,02,09,10.20
2009,06,20,02,10,10.20
2009,06,20,02,11,10.20
2009,06,20,02,12,10.20
2009,06,20,02,13,10.20
2009,06,20,02,14,10.20
2009,06,20,02,15,10.10
2009,06,20,02,16,10.10
2009,06,20,02,17,10.10
2009,06,20,02,18,10.10
2009,06,20,02,19,10.10
2009,06,20,02,20,10.10
2009,06,20,02,21,10.10
2009,06,20,02,22,10.10
2009,06,20,02,23,10.10
2009,06,20,02,24,10.10
2009,06,20,02,25,10.10
2009,06,20,02,26,10.10
2009,06,20,02,27,10.10
2009,06,20,02,28,10.00
2009,06,20,02,29,10.00
2009,06,20,02,30,10.00
2009,06,20,02,31,10.00
2009,06,20,02,32,10.00
2009,06,20,02,33,10.00
2009,06,20,02,34,10.00
2009,06,20,02,35,10.00
2009,06,20,02,36,10.00
2009,06,20,02,37,10.00
2009,06,20,02,38,10.00
2009,06,20,02,39,10.00
2009,06,20,02,40,10.00
2009,06,20,02,41,10.00
2009,06,20,02,42,10.10
2009,06,20,02,43,10.10
2009,06,20,02,44,10.10
2009,06,20,02,45,10.10
2009,06,20,02,46,10.20
2009,06,20,02,47,10.20
2009,06,20,02,48,10.20
2009,06,20,02,49,10.20
2009,06,20,02,50,10.10
2009,06,20,02,51,10.10
2009,06,20,02,52,10.10
2009,06,20,02,53,10.10
2009,06,20,02,54,10.10
2009,06,20,02,55,10.10
2009,06,20,02,56,10.10
2009,06,20,02,57,10.10
2009,06,20,02,58,10.10
2009,06,20,02,59,10.00
2009,06,20,03,00,10.00
2009,06,20,03,01,10.00
2009,06,20,03,02,10.00
2009,06,20,03,06,9.90
2009,06,20,03,07,9.90
2009,06,20,03,08,9.90
2009,06,20,03,09,9.80
2009,06,20,03,10,9.80
2009,06,20,03,11,9.80
2009,06,20,03,12,9.80
2009,06,20,03,13,9.80
2009,06,20,03,14,9.80
2009,06,20,03,15,9.80
2009,06,20,03,16,9.80
2009,06,20,03,17,9.80
2009,06,20,03,18,9.80
2009,06,20,03,19,9.80
2009,06,20,03,20,9.80
2009,06,20,03,21,9.80
2009,06,20,03,22,9.70
2009,06,20,03,23,9.70
2009,06,20,03,24,9.70
2009,06,20,03,25,9.70
2009,06,20,03,26,9.70
2009,06,20,03,27,9.70
2009,06,20,03,28,9.60
2009,06,20,03,29,9.60
2009,06,20,03,30,9.60
2009,06,20,03,31,9.60
2009,06,20,03,32,9.60
2009,06,20,03,33,9.60
2009,06,20,03,34,9.60
2009,06,20,03,35,9.60
2009,06,20,03,36,9.60
2009,06,20,03,37,9.60
2009,06,20,03,38,9.70
2009,06,20,03,39,9.60
2009,06,20,03,40,9.70
2009,06,20,03,41,9.60
2009,06,20,03,42,9.60
2009,06,20,03,43,9.60
2009,06,20,03,44,9.60
2009,06,20,03,45,9.60
2009,06,20,03,46,9.60
2009,06,20,03,47,9.60
2009,06,20,03,48,9.50
2009,06,20,03,49,9.50
2009,06,20,03,50,9.50
2009,06,20,03,51,9.40
2009,06,20,03,52,9.40
2009,06,20,03,53,9.40
2009,06,20,03,54,9.40
2009,06,20,03,55,9.30
2009,06,20,03,56,9.30
2009,06,20,03,57,9.30
2009,06,20,03,58,9.30
2009,06,20,03,59,9.20
2009,06,20,04,00,9.20
2009,06,20,04,01,9.20
2009,06,20,04,02,9.20
2009,06,20,04,03,9.10
2009,06,20,04,04,9.10
2009,06,20,04,05,9.10
2009,06,20,04,06,9.00
2009,06,20,04,07,9.00
2009,06,20,04,08,9.00
2009,06,20,04,09,8.90
2009,06,20,04,10,8.90
2009,06,20,04,11,8.90
2009,06,20,04,12,8.80
2009,06,20,04,13,8.80
2009,06,20,04,14,8.70
2009,06,20,04,15,8.70
2009,06,20,04,16,8.60
2009,06,20,04,17,8.60
2009,06,20,04,18,8.60
2009,06,20,04,19,8.60
2009,06,20,04,20,8.50
2009,06,20,04,21,8.50
2009,06,20,04,22,8.50
2009,06,20,04,23,8.50
2009,06,20,04,24,8.50
2009,06,20,04,25,8.50
2009,06,20,04,26,8.50
2009,06,20,04,27,8.60
2009,06,20,04,28,8.60
2009,06,20,04,29,8.60
2009,06,20,04,30,8.60
2009,06,20,04,31,8.60
2009,06,20,04,32,8.60
2009,06,20,04,33,8.60
2009,06,20,04,34,8.70
2009,06,20,04,35,8.70
2009,06,20,04,36,8.70
2009,06,20,04,37,8.70
2009,06,20,04,38,8.70
2009,06,20,04,39,8.80
2009,06,20,04,40,8.80
2009,06,20,04,41,8.80
2009,06,20,04,42,8.80
2009,06,20,04,43,8.90
2009,06,20,04,44,8.90
2009,06,20,04,45,8.90
2009,06,20,04,46,8.90
2009,06,20,04,47,8.90
2009,06,20,04,48,8.90
2009,06,20,04,49,8.90
2009,06,20,04,50,9.00
2009,06,20,04,51,9.00
2009,06,20,04,52,9.00
2009,06,20,04,53,9.00
2009,06,20,04,54,9.00
2009,06,20,04,55,9.00
2009,06,20,04,56,9.00
2009,06,20,04,57,9.10
2009,06,20,04,58,9.10
2009,06,20,04,59,9.10
2009,06,20,05,00,9.10
2009,06,20,05,01,9.00
2009,06,20,05,02,9.00
2009,06,20,05,03,9.00
2009,06,20,05,04,9.00
2009,06,20,05,05,9.00
2009,06,20,05,06,8.90
2009,06,20,05,07,8.90
2009,06,20,05,08,8.90
2009,06,20,05,09,8.90
2009,06,20,05,10,8.90
2009,06,20,05,11,8.90
2009,06,20,05,12,8.90
2009,06,20,05,13,8.90
2009,06,20,05,14,8.90
2009,06,20,05,15,8.90
2009,06,20,05,16,8.90
2009,06,20,05,17,8.90
2009,06,20,05,18,8.90
2009,06,20,05,19,8.90
2009,06,20,05,20,8.90
2009,06,20,05,21,8.90
2009,06,20,05,22,8.90
2009,06,20,05,23,8.90
2009,06,20,05,24,9.00
2009,06,20,05,25,9.00
2009,06,20,05,26,9.00
2009,06,20,05,27,9.00
2009,06,20,05,28,9.10
2009,06,20,05,29,9.10
2009,06,20,05,30,9.10
2009,06,20,05,31,9.10
2009,06,20,05,32,9.10
2009,06,20,05,33,9.10
2009,06,20,05,34,9.20
2009,06,20,05,35,9.20
2009,06,20,05,36,9.20
2009,06,20,05,37,9.20
2009,06,20,05,38,9.20
2009,06,20,05,39,9.20
2009,06,20,05,40,9.20
2009,06,20,05,41,9.30
2009,06,20,05,42,9.30
2009,06,20,05,43,9.30
2009,06,20,05,44,9.30
2009,06,20,05,45,9.30
2009,06,20,05,46,9.30
2009,06,20,05,47,9.30
2009,06,20,05,48,9.30
2009,06,20,05,49,9.30
2009,06,20,05,50,9.40
2009,06,20,05,51,9.40
2009,06,20,05,52,9.40
2009,06,20,05,53,9.40
2009,06,20,05,54,9.40
2009,06,20,05,55,9.40
2009,06,20,05,56,9.40
2009,06,20,05,57,9.50
2009,06,20,05,58,9.50
2009,06,20,05,59,9.50
2009,06,20,06,00,9.50
2009,06,20,06,01,9.60
2009,06,20,06,02,9.60
2009,06,20,06,03,9.60
2009,06,20,06,04,9.60
2009,06,20,06,05,9.60
2009,06,20,06,06,9.60
2009,06,20,06,07,9.60
2009,06,20,06,08,9.60
2009,06,20,06,09,9.60
2009,06,20,06,10,9.60
2009,06,20,06,11,9.60
2009,06,20,06,12,9.60
2009,06,20,06,13,9.60
2009,06,20,06,14,9.60
2009,06,20,06,15,9.70
2009,06,20,06,16,9.70
2009,06,20,06,17,9.70
2009,06,20,06,18,9.70
2009,06,20,06,19,9.70
2009,06,20,06,20,9.70
2009,06,20,06,21,9.80
2009,06,20,06,22,9.80
2009,06,20,06,23,9.80
2009,06,20,06,24,9.80
2009,06,20,06,25,9.80
2009,06,20,06,26,9.80
2009,06,20,06,27,9.80
2009,06,20,06,28,9.90
2009,06,20,06,29,9.90
2009,06,20,06,30,9.90
2009,06,20,06,31,9.90
2009,06,20,06,32,9.90
2009,06,20,06,33,10.00
2009,06,20,06,34,10.00
2009,06,20,06,35,10.00
2009,06,20,06,36,10.00
2009,06,20,06,37,10.10
2009,06,20,06,38,10.10
2009,06,20,06,39,10.10
2009,06,20,06,40,10.10
2009,06,20,06,41,10.20
2009,06,20,06,42,10.20
2009,06,20,06,43,10.20
2009,06,20,06,44,10.20
2009,06,20,06,45,10.20
2009,06,20,06,46,10.30
2009,06,20,06,47,10.30
2009,06,20,06,48,10.30
2009,06,20,06,49,10.30
2009,06,20,06,50,10.40
2009,06,20,06,51,10.40
2009,06,20,06,52,10.40
2009,06,20,06,53,10.50
2009,06,20,06,54,10.50
2009,06,20,06,55,10.60
2009,06,20,06,56,10.60
2009,06,20,06,57,10.60
2009,06,20,06,58,10.60
2009,06,20,06,59,10.70
2009,06,20,07,00,10.70
2009,06,20,07,01,10.70
2009,06,20,07,02,10.70
2009,06,20,07,03,10.80
2009,06,20,07,04,10.80
2009,06,20,07,05,10.80
2009,06,20,07,06,10.80
2009,06,20,07,07,10.80
2009,06,20,07,08,10.80
2009,06,20,07,09,10.80
2009,06,20,07,10,10.80
2009,06,20,07,11,10.80
2009,06,20,07,12,10.80
2009,06,20,07,13,10.90
2009,06,20,07,14,10.90
2009,06,20,07,15,10.90
2009,06,20,07,16,10.90
2009,06,20,07,17,11.00
2009,06,20,07,18,11.00
2009,06,20,07,19,11.00
2009,06,20,07,20,11.00
2009,06,20,07,21,11.10
2009,06,20,07,22,11.10
2009,06,20,07,23,11.10
2009,06,20,07,24,11.20
2009,06,20,07,25,11.20
2009,06,20,07,26,11.30
2009,06,20,07,27,11.30
2009,06,20,07,28,11.40
2009,06,20,07,29,11.40
2009,06,20,07,30,11.40
2009,06,20,07,31,11.50
2009,06,20,07,32,11.60
2009,06,20,07,33,11.60
2009,06,20,07,34,11.60
2009,06,20,07,35,11.70
2009,06,20,07,36,11.70
2009,06,20,07,37,11.80
2009,06,20,07,38,11.80
2009,06,20,07,39,11.90
2009,06,20,07,40,11.90
2009,06,20,07,41,11.90
2009,06,20,07,42,11.90
2009,06,20,07,43,12.00
2009,06,20,07,44,12.00
2009,06,20,07,45,12.10
2009,06,20,07,46,12.10
2009,06,20,07,47,12.20
2009,06,20,07,48,12.20
2009,06,20,07,49,12.20
2009,06,20,07,50,12.30
2009,06,20,07,51,12.30
2009,06,20,07,52,12.30
2009,06,20,07,53,12.40
2009,06,20,07,54,12.40
2009,06,20,07,55,12.50
2009,06,20,07,56,12.60
2009,06,20,07,57,12.60
2009,06,20,07,58,12.70
2009,06,20,07,59,12.70
2009,06,20,08,00,12.80
2009,06,20,08,01,12.80
2009,06,20,08,02,12.90
2009,06,20,08,03,13.00
2009,06,20,08,04,13.00
2009,06,20,08,05,13.10
2009,06,20,08,06,13.20
2009,06,20,08,07,13.20
2009,06,20,08,08,13.30
2009,06,20,08,09,13.40
2009,06,20,08,10,13.40
2009,06,20,08,11,13.50
2009,06,20,08,12,13.60
2009,06,20,08,13,13.60
2009,06,20,08,14,13.70
2009,06,20,08,15,13.70
2009,06,20,08,16,13.80
2009,06,20,08,17,13.80
2009,06,20,08,18,13.80
2009,06,20,08,19,13.80
2009,06,20,08,20,13.80
2009,06,20,08,21,13.80
2009,06,20,08,22,13.80
2009,06,20,08,23,13.80
2009,06,20,08,24,13.90
2009,06,20,08,25,13.90
2009,06,20,08,26,13.90
2009,06,20,08,27,13.90
2009,06,20,08,28,13.90
2009,06,20,08,29,14.00
2009,06,20,08,30,14.00
2009,06,20,08,31,14.00
2009,06,20,08,32,14.00
2009,06,20,08,33,14.00
2009,06,20,08,34,14.00
2009,06,20,08,35,14.00
2009,06,20,08,36,14.00
2009,06,20,08,37,14.00
2009,06,20,08,38,14.00
2009,06,20,08,39,14.00
2009,06,20,08,40,14.00
2009,06,20,08,41,14.00
2009,06,20,08,42,14.00
2009,06,20,08,43,14.00
2009,06,20,08,44,14.10
2009,06,20,08,45,14.10
2009,06,20,08,46,14.10
2009,06,20,08,47,14.10
2009,06,20,08,48,14.10
2009,06,20,08,49,14.10
2009,06,20,08,50,14.10
2009,06,20,08,51,14.10
2009,06,20,08,52,14.10
2009,06,20,08,53,14.20
2009,06,20,08,54,14.20
2009,06,20,08,55,14.20
2009,06,20,08,56,14.20
2009,06,20,08,57,14.30
2009,06,20,08,58,14.30
2009,06,20,08,59,14.30
2009,06,20,09,00,14.30
2009,06,20,09,01,14.30
2009,06,20,09,02,14.40
2009,06,20,09,03,14.50
2009,06,20,09,04,14.60
2009,06,20,09,05,14.70
2009,06,20,09,06,14.80
2009,06,20,09,07,14.90
2009,06,20,09,08,15.00
2009,06,20,09,09,15.00
2009,06,20,09,10,15.00
2009,06,20,09,11,15.10
2009,06,20,09,12,15.30
2009,06,20,09,13,15.40
2009,06,20,09,14,15.50
2009,06,20,09,15,15.60
2009,06,20,09,16,15.80
2009,06,20,09,17,15.90
2009,06,20,09,18,16.00
2009,06,20,09,19,16.10
2009,06,20,09,20,16.20
2009,06,20,09,21,16.30
2009,06,20,09,22,16.30
2009,06,20,09,23,16.30
2009,06,20,09,24,16.30
2009,06,20,09,25,16.30
2009,06,20,09,26,16.30
2009,06,20,09,27,16.30
2009,06,20,09,28,16.20
2009,06,20,09,29,16.20
2009,06,20,09,30,16.20
2009,06,20,09,31,16.20
2009,06,20,09,32,16.20
2009,06,20,09,33,16.30
2009,06,20,09,34,16.30
2009,06,20,09,35,16.30
2009,06,20,09,36,16.40
2009,06,20,09,37,16.50
2009,06,20,09,38,16.50
2009,06,20,09,39,16.40
2009,06,20,09,40,16.50
2009,06,20,09,41,16.50
2009,06,20,09,42,16.60
2009,06,20,09,43,16.60
2009,06,20,09,44,16.60
2009,06,20,09,45,16.60
2009,06,20,09,46,16.50
2009,06,20,09,47,16.40
2009,06,20,09,48,16.30
2009,06,20,09,49,16.30
2009,06,20,09,50,16.20
2009,06,20,09,51,16.20
2009,06,20,09,52,16.20
2009,06,20,09,53,16.20
2009,06,20,09,54,16.20
2009,06,20,09,55,16.20
2009,06,20,09,56,16.20
2009,06,20,09,57,16.20
2009,06,20,09,58,16.20
2009,06,20,09,59,16.10
2009,06,20,10,00,16.00
2009,06,20,10,01,15.90
2009,06,20,10,02,15.80
2009,06,20,10,03,15.90
2009,06,20,10,04,15.90
2009,06,20,10,05,16.00
2009,06,20,10,06,16.00
2009,06,20,10,07,16.10
2009,06,20,10,08,16.10
2009,06,20,10,09,16.00
2009,06,20,10,10,16.00
2009,06,20,10,11,15.90
2009,06,20,10,12,15.80
2009,06,20,10,13,15.70
2009,06,20,10,14,15.60
2009,06,20,10,15,15.50
2009,06,20,10,16,15.40
2009,06,20,10,17,15.30
2009,06,20,10,18,15.20
2009,06,20,10,19,15.20
2009,06,20,10,20,15.10
2009,06,20,10,21,15.10
2009,06,20,10,22,15.10
2009,06,20,10,23,15.00
2009,06,20,10,24,15.00
2009,06,20,10,25,15.00
2009,06,20,10,26,15.00
2009,06,20,10,27,15.00
2009,06,20,10,28,15.00
2009,06,20,10,29,15.00
2009,06,20,10,30,15.00
2009,06,20,10,31,15.00
2009,06,20,10,32,15.00
2009,06,20,10,33,15.10
2009,06,20,10,34,15.10
2009,06,20,10,35,15.20
2009,06,20,10,36,15.30
2009,06,20,10,37,15.30
2009,06,20,10,38,15.40
2009,06,20,10,39,15.40
2009,06,20,10,40,15.40
2009,06,20,10,41,15.50
2009,06,20,10,42,15.60
2009,06,20,10,43,15.60
2009,06,20,10,44,15.60
2009,06,20,10,45,15.60
2009,06,20,10,46,15.60
2009,06,20,10,47,15.60
2009,06,20,10,48,15.60
2009,06,20,10,49,15.60
2009,06,20,10,50,15.70
2009,06,20,10,51,15.70
2009,06,20,10,52,15.70
2009,06,20,10,53,15.60
2009,06,20,10,54,15.60
2009,06,20,10,55,15.60
2009,06,20,10,56,15.60
2009,06,20,10,57,15.60
2009,06,20,10,58,15.50
2009,06,20,10,59,15.50
2009,06,20,11,00,15.50
2009,06,20,11,01,15.50
2009,06,20,11,02,15.50
2009,06,20,11,03,15.40
2009,06,20,11,04,15.40
2009,06,20,11,05,15.40
2009,06,20,11,06,15.40
2009,06,20,11,07,15.40
2009,06,20,11,08,15.40
2009,06,20,11,09,15.30
2009,06,20,11,10,15.30
2009,06,20,11,11,15.30
2009,06,20,11,12,15.40
2009,06,20,11,13,15.40
2009,06,20,11,14,15.40
2009,06,20,11,15,15.40
2009,06,20,11,16,15.50
2009,06,20,11,17,15.40
2009,06,20,11,18,15.50
2009,06,20,11,19,15.50
2009,06,20,11,20,15.50
2009,06,20,11,21,15.60
2009,06,20,11,22,15.60
2009,06,20,11,23,15.60
2009,06,20,11,24,15.70
2009,06,20,11,25,15.70
2009,06,20,11,26,15.80
2009,06,20,11,27,15.90
2009,06,20,11,28,16.00
2009,06,20,11,29,16.10
2009,06,20,11,30,16.10
2009,06,20,11,31,16.20
2009,06,20,11,32,16.20
2009,06,20,11,33,16.30
2009,06,20,11,34,16.30
2009,06,20,11,35,16.30
2009,06,20,11,36,16.30
2009,06,20,11,37,16.20
2009,06,20,11,38,16.20
2009,06,20,11,39,16.20
2009,06,20,11,40,16.10
2009,06,20,11,41,16.10
2009,06,20,11,42,16.00
2009,06,20,11,43,16.10
2009,06,20,11,44,16.10
2009,06,20,11,45,16.00
2009,06,20,11,46,16.00
2009,06,20,11,47,16.00
2009,06,20,11,48,16.00
2009,06,20,11,49,16.00
2009,06,20,11,50,16.00
2009,06,20,11,51,16.00
2009,06,20,11,52,16.00
2009,06,20,11,53,16.00
2009,06,20,11,54,15.90
2009,06,20,11,55,15.90
2009,06,20,11,56,15.80
2009,06,20,11,57,15.80
2009,06,20,11,58,15.70
2009,06,20,11,59,15.70
2009,06,20,12,00,15.70
2009,06,20,12,01,15.70
2009,06,20,12,02,15.70
2009,06,20,12,03,15.70
2009,06,20,12,04,15.60
2009,06,20,12,05,15.60
2009,06,20,12,06,15.60
2009,06,20,12,07,15.50
2009,06,20,12,08,15.60
2009,06,20,12,09,15.60
2009,06,20,12,10,15.60
2009,06,20,12,11,15.60
2009,06,20,12,12,15.60
2009,06,20,12,13,15.60
2009,06,20,12,14,15.60
2009,06,20,12,15,15.70
2009,06,20,12,16,15.70
2009,06,20,12,17,15.80
2009,06,20,12,18,15.90
2009,06,20,12,19,15.90
2009,06,20,12,20,15.90
2009,06,20,12,21,15.90
2009,06,20,12,22,15.90
2009,06,20,12,23,16.00
2009,06,20,12,24,16.00
2009,06,20,12,25,16.10
2009,06,20,12,26,16.20
2009,06,20,12,27,16.20
2009,06,20,12,28,16.30
2009,06,20,12,29,16.40
2009,06,20,12,30,16.40
2009,06,20,12,31,16.50
2009,06,20,12,32,16.50
2009,06,20,12,33,16.50
2009,06,20,12,34,16.50
2009,06,20,12,35,16.40
2009,06,20,12,36,16.40
2009,06,20,12,37,16.40
2009,06,20,12,38,16.40
2009,06,20,12,39,16.40
2009,06,20,12,40,16.40
2009,06,20,12,41,16.40
2009,06,20,12,42,16.40
2009,06,20,12,43,16.40
2009,06,20,12,44,16.40
2009,06,20,12,45,16.50
2009,06,20,12,46,16.50
2009,06,20,12,47,16.60
2009,06,20,12,48,16.60
2009,06,20,12,49,16.70
2009,06,20,12,50,16.70
2009,06,20,12,51,16.70
2009,06,20,12,52,16.70
2009,06,20,12,53,16.70
2009,06,20,12,54,16.70
2009,06,20,12,55,16.80
2009,06,20,12,56,16.80
2009,06,20,12,57,16.90
2009,06,20,12,58,16.90
2009,06,20,12,59,17.00
2009,06,20,13,00,17.10
2009,06,20,13,01,17.20
2009,06,20,13,02,17.20
2009,06,20,13,03,17.30
2009,06,20,13,04,17.40
2009,06,20,13,05,17.50
2009,06,20,13,06,17.50
2009,06,20,13,07,17.50
2009,06,20,13,08,17.50
2009,06,20,13,09,17.40
2009,06,20,13,10,17.20
2009,06,20,13,11,17.00
2009,06,20,13,12,17.00
2009,06,20,13,13,16.90
2009,06,20,13,14,17.00
2009,06,20,13,15,17.10
2009,06,20,13,16,17.10
2009,06,20,13,17,17.10
2009,06,20,13,18,17.10
2009,06,20,13,19,17.20
2009,06,20,13,20,17.20
2009,06,20,13,21,17.30
2009,06,20,13,22,17.40
2009,06,20,13,23,17.50
2009,06,20,13,24,17.50
2009,06,20,13,25,17.60
2009,06,20,13,26,17.70
2009,06,20,13,27,17.70
2009,06,20,13,28,17.80
2009,06,20,13,29,17.90
2009,06,20,13,30,18.00
2009,06,20,13,31,18.00
2009,06,20,13,32,18.10
2009,06,20,13,33,18.10
2009,06,20,13,34,18.00
2009,06,20,13,35,17.80
2009,06,20,13,36,17.80
2009,06,20,13,37,17.90
2009,06,20,13,38,18.00
2009,06,20,13,39,18.10
2009,06,20,13,40,18.30
2009,06,20,13,41,18.30
2009,06,20,13,42,18.40
2009,06,20,13,43,18.40
2009,06,20,13,44,18.40
2009,06,20,13,45,18.40
2009,06,20,13,46,18.50
2009,06,20,13,47,18.50
2009,06,20,13,48,18.40
2009,06,20,13,49,18.30
2009,06,20,13,50,18.10
2009,06,20,13,51,18.00
2009,06,20,13,52,17.80
2009,06,20,13,53,17.70
2009,06,20,13,54,17.60
2009,06,20,13,55,17.60
2009,06,20,13,56,17.60
2009,06,20,13,57,17.70
2009,06,20,13,58,17.50
2009,06,20,13,59,17.30
2009,06,20,14,00,17.20
2009,06,20,14,01,17.10
2009,06,20,14,02,17.10
2009,06,20,14,03,17.20
2009,06,20,14,04,17.30
2009,06,20,14,05,17.30
2009,06,20,14,06,17.40
2009,06,20,14,07,17.40
2009,06,20,14,08,17.50
2009,06,20,14,09,17.50
2009,06,20,14,10,17.40
2009,06,20,14,11,17.40
2009,06,20,14,12,17.40
2009,06,20,14,13,17.40
2009,06,20,14,14,17.50
2009,06,20,14,15,17.60
2009,06,20,14,16,17.60
2009,06,20,14,17,17.50
2009,06,20,14,18,17.50
2009,06,20,14,19,17.40
2009,06,20,14,20,17.40
2009,06,20,14,21,17.40
2009,06,20,14,22,17.30
2009,06,20,14,23,17.20
2009,06,20,14,24,17.20
2009,06,20,14,25,17.20
2009,06,20,14,26,17.30
2009,06,20,14,27,17.40
2009,06,20,14,28,17.40
2009,06,20,14,29,17.50
2009,06,20,14,30,17.30
2009,06,20,14,31,17.10
2009,06,20,14,32,17.00
2009,06,20,14,33,16.90
2009,06,20,14,34,16.80
2009,06,20,14,35,16.80
2009,06,20,14,36,16.90
2009,06,20,14,37,17.00
2009,06,20,14,38,17.00
2009,06,20,14,39,16.90
2009,06,20,14,40,16.90
2009,06,20,14,41,16.80
2009,06,20,14,42,16.80
2009,06,20,14,43,16.80
2009,06,20,14,44,16.80
2009,06,20,14,45,16.80
2009,06,20,14,46,16.80
2009,06,20,14,47,16.70
2009,06,20,14,48,16.70
2009,06,20,14,49,16.70
2009,06,20,14,50,16.70
2009,06,20,14,51,16.80
2009,06,20,14,52,16.80
2009,06,20,14,53,16.90
2009,06,20,14,54,16.90
2009,06,20,14,55,16.90
2009,06,20,14,56,16.90
2009,06,20,14,57,16.90
2009,06,20,14,58,16.80
2009,06,20,14,59,16.80
2009,06,20,15,00,16.80
2009,06,20,15,01,16.80
2009,06,20,15,02,16.80
2009,06,20,15,03,16.80
2009,06,20,15,04,16.80
2009,06,20,15,05,16.80
2009,06,20,15,06,16.80
2009,06,20,15,07,16.90
2009,06,20,15,08,16.90
2009,06,20,15,09,16.90
2009,06,20,15,10,16.80
2009,06,20,15,11,16.80
2009,06,20,15,12,16.80
2009,06,20,15,13,16.80
2009,06,20,15,14,16.90
2009,06,20,15,15,16.90
2009,06,20,15,16,17.00
2009,06,20,15,17,17.10
2009,06,20,15,18,17.10
2009,06,20,15,19,17.10
2009,06,20,15,20,17.10
2009,06,20,15,21,17.10
2009,06,20,15,22,17.00
2009,06,20,15,23,16.90
2009,06,20,15,24,16.90
2009,06,20,15,25,16.80
2009,06,20,15,26,16.80
2009,06,20,15,27,16.90
2009,06,20,15,28,17.10
2009,06,20,15,29,17.30
2009,06,20,15,30,17.50
2009,06,20,15,31,17.70
2009,06,20,15,32,17.90
2009,06,20,15,33,18.10
2009,06,20,15,34,18.20
2009,06,20,15,35,18.20
2009,06,20,15,36,18.20
2009,06,20,15,37,18.30
2009,06,20,15,38,18.40
2009,06,20,15,39,18.50
2009,06,20,15,40,18.50
2009,06,20,15,41,18.60
2009,06,20,15,42,18.70
2009,06,20,15,43,18.70
2009,06,20,15,44,18.70
2009,06,20,15,45,18.70
2009,06,20,15,46,18.80
2009,06,20,15,47,18.80
2009,06,20,15,48,18.80
2009,06,20,15,49,18.90
2009,06,20,15,50,19.00
2009,06,20,15,51,19.10
2009,06,20,15,52,19.10
2009,06,20,15,53,19.10
2009,06,20,15,54,19.20
2009,06,20,15,55,19.30
2009,06,20,15,56,19.30
2009,06,20,15,57,19.30
2009,06,20,15,58,19.40
2009,06,20,15,59,19.40
2009,06,20,16,00,19.30
2009,06,20,16,01,19.30
2009,06,20,16,02,19.20
2009,06,20,16,03,19.20
2009,06,20,16,04,19.10
2009,06,20,16,05,19.00
2009,06,20,16,06,18.90
2009,06,20,16,07,18.80
2009,06,20,16,08,18.60
2009,06,20,16,09,18.30
2009,06,20,16,10,18.20
2009,06,20,16,11,18.20
2009,06,20,16,12,18.30
2009,06,20,16,13,18.30
2009,06,20,16,14,18.30
2009,06,20,16,15,18.20
2009,06,20,16,16,18.20
2009,06,20,16,17,18.30
2009,06,20,16,18,18.40
2009,06,20,16,19,18.50
2009,06,20,16,20,18.50
2009,06,20,16,21,18.60
2009,06,20,16,22,18.70
2009,06,20,16,23,18.70
2009,06,20,16,24,18.60
2009,06,20,16,25,18.50
2009,06,20,16,26,18.40
2009,06,20,16,27,18.30
2009,06,20,16,28,18.20
2009,06,20,16,29,18.20
2009,06,20,16,30,18.20
2009,06,20,16,31,18.30
2009,06,20,16,32,18.30
2009,06,20,16,33,18.40
2009,06,20,16,34,18.40
2009,06,20,16,35,18.40
2009,06,20,16,36,18.50
2009,06,20,16,37,18.50
2009,06,20,16,38,18.50
2009,06,20,16,39,18.50
2009,06,20,16,40,18.50
2009,06,20,16,41,18.50
2009,06,20,16,42,18.50
2009,06,20,16,43,18.50
2009,06,20,16,44,18.40
2009,06,20,16,45,18.40
2009,06,20,16,46,18.50
2009,06,20,16,47,18.50
2009,06,20,16,48,18.40
2009,06,20,16,49,18.40
2009,06,20,16,50,18.40
2009,06,20,16,51,18.50
2009,06,20,16,52,18.50
2009,06,20,16,53,18.50
2009,06,20,16,54,18.50
2009,06,20,16,55,18.50
2009,06,20,16,56,18.50
2009,06,20,16,57,18.40
2009,06,20,16,58,18.40
2009,06,20,16,59,18.40
2009,06,20,17,00,18.40
2009,06,20,17,01,18.40
2009,06,20,17,02,18.30
2009,06,20,17,03,18.40
2009,06,20,17,04,18.40
2009,06,20,17,05,18.40
2009,06,20,17,06,18.40
2009,06,20,17,07,18.40
2009,06,20,17,08,18.40
2009,06,20,17,09,18.50
2009,06,20,17,10,18.60
2009,06,20,17,11,18.70
2009,06,20,17,12,18.80
2009,06,20,17,13,19.00
2009,06,20,17,14,19.10
2009,06,20,17,15,19.10
2009,06,20,17,16,19.10
2009,06,20,17,17,19.10
2009,06,20,17,18,19.20
2009,06,20,17,19,19.20
2009,06,20,17,20,19.10
2009,06,20,17,21,19.10
2009,06,20,17,22,19.10
2009,06,20,17,23,19.20
2009,06,20,17,24,19.20
2009,06,20,17,25,19.30
2009,06,20,17,26,19.30
2009,06,20,17,27,19.30
2009,06,20,17,28,19.30
2009,06,20,17,29,19.30
2009,06,20,17,30,19.30
2009,06,20,17,31,19.20
2009,06,20,17,32,19.10
2009,06,20,17,33,18.90
2009,06,20,17,34,18.80